N125HM KJAX-KIAD

Flight info

Callsign N125HM
Flight time 1h 33m
Altitude 33000
Route CROSB2 WISPR JROSS LCAPE Q87 ALWZZ OGRAE BZNGA DORRN CAVLR6
Aircraft C750/M-V/N

Departure

Time 2026-05-05 19:18
Airport Jacksonville International Airport (KJAX)

Arrival

Time 2026-05-05 20:51
Airport Washington Dulles International Airport (KIAD)
Time Latitude Longitude Altitude Speed Heading
2026-05-05 19:04 30.49752 -81.67828 22 ft 0 kts 101°
2026-05-05 19:11 30.49753 -81.67820 22 ft 6 kts 79°
2026-05-05 19:12 30.49802 -81.67811 22 ft 10 kts 336°
2026-05-05 19:12 30.49843 -81.67890 22 ft 10 kts 294°
2026-05-05 19:12 30.49850 -81.67900 22 ft 0 kts 338°
2026-05-05 19:13 30.49855 -81.67902 22 ft 6 kts 341°
2026-05-05 19:13 30.49937 -81.67936 22 ft 18 kts 341°
2026-05-05 19:13 30.50049 -81.68006 22 ft 17 kts 280°
2026-05-05 19:14 30.50009 -81.68152 22 ft 19 kts 248°
2026-05-05 19:14 30.49963 -81.68305 22 ft 19 kts 253°
2026-05-05 19:14 30.49917 -81.68456 22 ft 19 kts 247°
2026-05-05 19:14 30.49867 -81.68605 22 ft 19 kts 249°
2026-05-05 19:15 30.49826 -81.68755 22 ft 20 kts 251°
2026-05-05 19:15 30.49777 -81.68919 22 ft 21 kts 252°
2026-05-05 19:15 30.49726 -81.69084 22 ft 21 kts 250°
2026-05-05 19:15 30.49676 -81.69256 22 ft 23 kts 250°
2026-05-05 19:16 30.49619 -81.69435 22 ft 23 kts 250°
2026-05-05 19:16 30.49572 -81.69601 22 ft 16 kts 256°
2026-05-05 19:16 30.49533 -81.69721 22 ft 15 kts 248°
2026-05-05 19:16 30.49494 -81.69842 22 ft 16 kts 251°
2026-05-05 19:17 30.49536 -81.69947 20 ft 16 kts 335°
2026-05-05 19:17 30.49644 -81.69905 20 ft 32 kts 59°
2026-05-05 19:17 30.49850 -81.69257 23 ft 136 kts 71°
2026-05-05 19:17 30.50253 -81.68000 478 ft 192 kts 70°
2026-05-05 19:18 30.50776 -81.66376 823 ft 236 kts 70°
2026-05-05 19:18 30.51416 -81.64503 1162 ft 244 kts 70°
2026-05-05 19:18 30.52023 -81.62683 1430 ft 237 kts 70°
2026-05-05 19:18 30.52621 -81.60880 1719 ft 238 kts 70°
2026-05-05 19:19 30.53213 -81.59049 2009 ft 239 kts 71°
2026-05-05 19:19 30.53806 -81.57210 2298 ft 239 kts 71°
2026-05-05 19:19 30.54405 -81.55376 2585 ft 239 kts 70°
2026-05-05 19:19 30.55049 -81.53581 2851 ft 241 kts 59°
2026-05-05 19:20 30.56359 -81.52378 3223 ft 237 kts 17°
2026-05-05 19:20 30.57932 -81.51985 3742 ft 221 kts
2026-05-05 19:20 30.59440 -81.51839 4229 ft 220 kts
2026-05-05 19:20 30.61028 -81.51630 4926 ft 231 kts
2026-05-05 19:21 30.62688 -81.51414 5602 ft 247 kts
2026-05-05 19:21 30.64469 -81.51186 6291 ft 264 kts
2026-05-05 19:21 30.66385 -81.50944 6985 ft 281 kts
2026-05-05 19:21 30.68390 -81.50690 7673 ft 289 kts
2026-05-05 19:22 30.70310 -81.50443 8274 ft 269 kts
2026-05-05 19:22 30.72146 -81.50206 8882 ft 254 kts
2026-05-05 19:22 30.73873 -81.49983 9517 ft 238 kts
2026-05-05 19:22 30.75503 -81.49776 10132 ft 222 kts
2026-05-05 19:23 30.76998 -81.49583 10738 ft 205 kts
2026-05-05 19:23 30.78385 -81.49402 11339 ft 187 kts
2026-05-05 19:23 30.79677 -81.49239 11962 ft 184 kts
2026-05-05 19:23 30.80974 -81.49078 12677 ft 194 kts
2026-05-05 19:24 30.82397 -81.48901 13399 ft 204 kts
2026-05-05 19:24 30.83835 -81.48714 14078 ft 208 kts
2026-05-05 19:24 30.85301 -81.48524 14749 ft 211 kts
2026-05-05 19:24 30.86880 -81.48331 14968 ft 240 kts
2026-05-05 19:25 30.88707 -81.48099 15011 ft 274 kts
2026-05-05 19:25 30.90742 -81.47839 15014 ft 307 kts
2026-05-05 19:25 30.93026 -81.47545 15002 ft 338 kts
2026-05-05 19:25 30.95476 -81.47465 14998 ft 361 kts 358°
2026-05-05 19:26 30.98037 -81.46742 15233 ft 365 kts 17°
2026-05-05 19:26 31.00376 -81.46006 15574 ft 327 kts
2026-05-05 19:26 31.02592 -81.45455 15929 ft 330 kts
2026-05-05 19:26 31.04968 -81.44908 16371 ft 351 kts
2026-05-05 19:27 31.07476 -81.44339 16815 ft 371 kts
2026-05-05 19:27 31.10062 -81.43750 17209 ft 380 kts
2026-05-05 19:27 31.12711 -81.43148 17626 ft 388 kts
2026-05-05 19:27 31.15422 -81.42535 18084 ft 386 kts
2026-05-05 19:28 31.18122 -81.41924 18623 ft 380 kts
2026-05-05 19:28 31.20693 -81.41338 19200 ft 373 kts
2026-05-05 19:28 31.23283 -81.40753 19834 ft 376 kts
2026-05-05 19:28 31.25939 -81.40160 20495 ft 384 kts
2026-05-05 19:29 31.28591 -81.39558 21141 ft 391 kts
2026-05-05 19:29 31.31318 -81.38940 21794 ft 393 kts
2026-05-05 19:29 31.34047 -81.38320 22432 ft 392 kts
2026-05-05 19:29 31.36805 -81.37693 23118 ft 391 kts
2026-05-05 19:30 31.39547 -81.37075 23798 ft 390 kts
2026-05-05 19:30 31.42289 -81.36453 24486 ft 388 kts
2026-05-05 19:30 31.44983 -81.35845 25159 ft 386 kts
2026-05-05 19:30 31.47644 -81.35238 25868 ft 386 kts
2026-05-05 19:31 31.50393 -81.34612 26617 ft 386 kts
2026-05-05 19:31 31.53096 -81.33997 27338 ft 387 kts
2026-05-05 19:31 31.55802 -81.33382 28057 ft 386 kts
2026-05-05 19:31 31.58471 -81.32776 28780 ft 385 kts
2026-05-05 19:32 31.61125 -81.32169 29486 ft 384 kts
2026-05-05 19:32 31.63800 -81.31554 30200 ft 382 kts
2026-05-05 19:32 31.66557 -81.30924 30939 ft 379 kts
2026-05-05 19:32 31.69148 -81.30327 31642 ft 376 kts
2026-05-05 19:33 31.71732 -81.29740 32233 ft 375 kts
2026-05-05 19:33 31.74300 -81.29156 32700 ft 374 kts
2026-05-05 19:33 31.76925 -81.28561 33006 ft 378 kts
2026-05-05 19:33 31.79554 -81.27966 33035 ft 388 kts
2026-05-05 19:34 31.85070 -81.26713 33051 ft 408 kts
2026-05-05 19:35 31.93847 -81.24697 33055 ft 435 kts
2026-05-05 19:35 31.99990 -81.23286 33054 ft 450 kts
2026-05-05 19:35 32.03077 -81.22360 33020 ft 471 kts 13°
2026-05-05 19:36 32.05980 -81.20250 33089 ft 496 kts 28°
2026-05-05 19:36 32.11638 -81.15237 33067 ft 506 kts 28°
2026-05-05 19:37 32.17410 -81.10181 33067 ft 515 kts 27°
2026-05-05 19:37 32.23275 -81.05030 33072 ft 522 kts 28°
2026-05-05 19:38 32.29125 -80.99888 33081 ft 520 kts 27°
2026-05-05 19:38 32.34993 -80.94720 33077 ft 519 kts 27°
2026-05-05 19:39 32.40836 -80.89568 33077 ft 519 kts 28°
2026-05-05 19:39 32.46663 -80.84418 33082 ft 516 kts 28°
2026-05-05 19:40 32.52422 -80.79320 33079 ft 515 kts 28°
2026-05-05 19:40 32.58275 -80.74136 33076 ft 521 kts 27°
2026-05-05 19:41 32.64129 -80.68941 33071 ft 522 kts 28°
2026-05-05 19:41 32.69999 -80.63718 33065 ft 519 kts 27°
2026-05-05 19:41 32.73080 -80.61514 33053 ft 497 kts 17°
2026-05-05 19:42 32.76246 -80.59671 33051 ft 492 kts 18°
2026-05-05 19:42 32.82353 -80.56042 33069 ft 480 kts 17°
2026-05-05 19:43 32.88319 -80.52507 33061 ft 471 kts 18°
2026-05-05 19:43 32.94215 -80.48995 33055 ft 463 kts 18°
2026-05-05 19:44 33.00012 -80.45535 33056 ft 456 kts 17°
2026-05-05 19:44 33.05742 -80.42116 33075 ft 451 kts 18°
2026-05-05 19:45 33.11478 -80.38684 33065 ft 449 kts 17°
2026-05-05 19:45 33.17221 -80.35250 33079 ft 449 kts 17°
2026-05-05 19:46 33.22875 -80.31857 33053 ft 449 kts 18°
2026-05-05 19:46 33.28639 -80.28395 33050 ft 448 kts 18°
2026-05-05 19:47 33.34256 -80.25016 33048 ft 447 kts 18°
2026-05-05 19:47 33.39865 -80.21635 33044 ft 446 kts 18°
2026-05-05 19:48 33.45484 -80.18242 33036 ft 445 kts 18°
2026-05-05 19:48 33.51069 -80.14870 33046 ft 444 kts 18°
2026-05-05 19:49 33.56736 -80.11443 33052 ft 443 kts 18°
2026-05-05 19:49 33.62447 -80.07982 33048 ft 443 kts 18°
2026-05-05 19:50 33.68008 -80.04606 33050 ft 442 kts 18°
2026-05-05 19:50 33.73552 -80.01232 33054 ft 442 kts 18°
2026-05-05 19:51 33.79105 -79.97853 33044 ft 441 kts 18°
2026-05-05 19:51 33.84637 -79.94480 33052 ft 440 kts 18°
2026-05-05 19:52 33.90149 -79.91119 33054 ft 439 kts 18°
2026-05-05 19:52 33.95628 -79.87769 33051 ft 439 kts 18°
2026-05-05 19:53 34.01145 -79.84392 33041 ft 439 kts 18°
2026-05-05 19:53 34.06602 -79.81047 33047 ft 438 kts 18°
2026-05-05 19:54 34.12086 -79.77679 33059 ft 438 kts 18°
2026-05-05 19:54 34.17587 -79.74298 33071 ft 438 kts 18°
2026-05-05 19:55 34.23064 -79.70923 33054 ft 439 kts 18°
2026-05-05 19:55 34.28575 -79.67523 33057 ft 439 kts 18°
2026-05-05 19:56 34.34073 -79.64130 33059 ft 439 kts 18°
2026-05-05 19:56 34.39572 -79.60727 33050 ft 440 kts 18°
2026-05-05 19:57 34.45129 -79.57288 33050 ft 445 kts 18°
2026-05-05 19:57 34.50726 -79.53816 33049 ft 450 kts 18°
2026-05-05 19:58 34.56397 -79.50245 33044 ft 459 kts 20°
2026-05-05 19:58 34.62078 -79.46412 33035 ft 467 kts 20°
2026-05-05 19:59 34.67831 -79.42533 33045 ft 474 kts 20°
2026-05-05 19:59 34.70896 -79.40867 32991 ft 457 kts
2026-05-05 19:59 34.73954 -79.40204 33064 ft 445 kts
2026-05-05 20:00 34.80076 -79.38888 33050 ft 436 kts
2026-05-05 20:00 34.86069 -79.37612 33047 ft 429 kts
2026-05-05 20:01 34.91933 -79.36354 33033 ft 422 kts
2026-05-05 20:01 34.97764 -79.35116 33031 ft 417 kts
2026-05-05 20:02 35.03521 -79.33884 33018 ft 411 kts
2026-05-05 20:02 35.09171 -79.32672 33012 ft 412 kts
2026-05-05 20:03 35.15029 -79.31423 33041 ft 430 kts
2026-05-05 20:03 35.21126 -79.30113 33035 ft 447 kts
2026-05-05 20:04 35.27396 -79.28767 33035 ft 459 kts
2026-05-05 20:04 35.33859 -79.27373 33028 ft 470 kts
2026-05-05 20:05 35.40438 -79.25950 33011 ft 478 kts
2026-05-05 20:05 35.47071 -79.24513 33016 ft 479 kts
2026-05-05 20:06 35.53625 -79.23093 33019 ft 475 kts
2026-05-05 20:06 35.60210 -79.21671 33020 ft 472 kts
2026-05-05 20:07 35.66729 -79.20251 33017 ft 470 kts
2026-05-05 20:07 35.73172 -79.18777 32996 ft 474 kts
2026-05-05 20:07 35.76253 -79.16925 33021 ft 497 kts 28°
2026-05-05 20:08 35.78956 -79.14103 33033 ft 501 kts 32°
2026-05-05 20:08 35.84355 -79.08578 33008 ft 500 kts 31°
2026-05-05 20:09 35.89763 -79.03051 33007 ft 499 kts 32°
2026-05-05 20:09 35.95198 -78.97487 33012 ft 499 kts 32°
2026-05-05 20:10 36.00575 -78.91971 33021 ft 499 kts 32°
2026-05-05 20:10 36.05972 -78.86427 33014 ft 499 kts 32°
2026-05-05 20:11 36.11354 -78.80888 33013 ft 499 kts 32°
2026-05-05 20:11 36.16748 -78.75323 33017 ft 500 kts 31°
2026-05-05 20:12 36.22110 -78.69788 33014 ft 501 kts 32°
2026-05-05 20:12 36.27505 -78.64200 33019 ft 501 kts 32°
2026-05-05 20:13 36.32879 -78.58629 33009 ft 502 kts 32°
2026-05-05 20:13 36.38235 -78.53059 33011 ft 502 kts 32°
2026-05-05 20:14 36.43964 -78.48342 33032 ft 480 kts 14°
2026-05-05 20:14 36.50251 -78.45019 32997 ft 477 kts 15°
2026-05-05 20:15 36.56388 -78.41748 32987 ft 470 kts 15°
2026-05-05 20:15 36.62416 -78.38531 32982 ft 464 kts 15°
2026-05-05 20:16 36.68412 -78.35322 32990 ft 459 kts 15°
2026-05-05 20:16 36.74287 -78.32172 32980 ft 450 kts 15°
2026-05-05 20:17 36.80017 -78.29089 32984 ft 441 kts 15°
2026-05-05 20:17 36.85671 -78.26052 32974 ft 434 kts 15°
2026-05-05 20:18 36.91243 -78.23052 32972 ft 429 kts 15°
2026-05-05 20:18 36.96830 -78.20045 32981 ft 443 kts 15°
2026-05-05 20:19 37.02655 -78.16906 32984 ft 460 kts 15°
2026-05-05 20:19 37.08656 -78.13651 32977 ft 475 kts 16°
2026-05-05 20:20 37.14839 -78.10300 32977 ft 488 kts 16°
2026-05-05 20:20 37.21182 -78.06853 32965 ft 500 kts 16°
2026-05-05 20:21 37.27525 -78.03391 32943 ft 477 kts 16°
2026-05-05 20:21 37.30602 -78.01713 32937 ft 464 kts 15°
2026-05-05 20:21 37.33543 -78.00105 32936 ft 452 kts 15°
2026-05-05 20:22 37.39272 -77.96980 32937 ft 434 kts 15°
2026-05-05 20:22 37.44747 -77.93984 32927 ft 418 kts 15°
2026-05-05 20:22 37.47432 -77.92522 32368 ft 420 kts 15°
2026-05-05 20:23 37.50172 -77.91032 31577 ft 421 kts 17°
2026-05-05 20:23 37.52869 -77.89560 30888 ft 421 kts 17°
2026-05-05 20:23 37.55568 -77.88038 30126 ft 423 kts 19°
2026-05-05 20:23 37.58258 -77.86507 29404 ft 416 kts 19°
2026-05-05 20:24 37.60889 -77.85003 28665 ft 410 kts 19°
2026-05-05 20:24 37.63523 -77.83498 27933 ft 405 kts 20°
2026-05-05 20:24 37.66084 -77.82051 27233 ft 404 kts 20°
2026-05-05 20:24 37.68700 -77.80606 26521 ft 403 kts 20°
2026-05-05 20:25 37.71329 -77.79150 25730 ft 404 kts 20°
2026-05-05 20:25 37.74075 -77.77628 24302 ft 410 kts 21°
2026-05-05 20:25 37.76792 -77.76124 22627 ft 423 kts 21°
2026-05-05 20:25 37.79694 -77.74504 21241 ft 415 kts 21°
2026-05-05 20:26 37.82438 -77.72968 20462 ft 398 kts 21°
2026-05-05 20:26 37.85092 -77.71489 19708 ft 385 kts 21°
2026-05-05 20:26 37.87572 -77.70106 19038 ft 379 kts 20°
2026-05-05 20:26 37.90130 -77.68683 18364 ft 371 kts 20°
2026-05-05 20:27 37.92587 -77.67309 17727 ft 364 kts 20°
2026-05-05 20:27 37.94992 -77.65967 17099 ft 358 kts 20°
2026-05-05 20:27 37.97350 -77.64652 16479 ft 357 kts 20°
2026-05-05 20:27 37.99749 -77.63309 15855 ft 359 kts 20°
2026-05-05 20:28 38.02142 -77.61975 15236 ft 360 kts 20°
2026-05-05 20:28 38.04482 -77.60662 14622 ft 362 kts 20°
2026-05-05 20:28 38.06905 -77.59213 13968 ft 363 kts 23°
2026-05-05 20:28 38.09319 -77.57670 13285 ft 364 kts 22°
2026-05-05 20:29 38.11669 -77.56177 12598 ft 363 kts 23°
2026-05-05 20:29 38.13926 -77.54741 11900 ft 357 kts 23°
2026-05-05 20:29 38.16212 -77.53288 11106 ft 354 kts 23°
2026-05-05 20:29 38.18522 -77.51814 10196 ft 356 kts 24°
2026-05-05 20:30 38.20732 -77.50398 10045 ft 337 kts 24°
2026-05-05 20:30 38.22811 -77.49062 10022 ft 321 kts 23°
2026-05-05 20:30 38.24865 -77.47971 9926 ft 315 kts 12°
2026-05-05 20:30 38.27066 -77.47221 9684 ft 312 kts 11°
2026-05-05 20:31 38.29223 -77.46472 9445 ft 315 kts 11°
2026-05-05 20:31 38.31358 -77.45727 9201 ft 314 kts 11°
2026-05-05 20:31 38.33506 -77.44972 8954 ft 313 kts 11°
2026-05-05 20:31 38.35657 -77.44212 8707 ft 314 kts 12°
2026-05-05 20:32 38.37814 -77.43453 8459 ft 308 kts 12°
2026-05-05 20:32 38.39855 -77.42726 8217 ft 299 kts 12°
2026-05-05 20:32 38.41917 -77.41996 7981 ft 297 kts 12°
2026-05-05 20:32 38.43938 -77.41283 7760 ft 299 kts 12°
2026-05-05 20:33 38.45995 -77.40556 7529 ft 302 kts 12°
2026-05-05 20:33 38.48045 -77.39831 7295 ft 304 kts 12°
2026-05-05 20:33 38.50129 -77.39093 7073 ft 306 kts 11°
2026-05-05 20:33 38.52235 -77.38429 7032 ft 301 kts 11°
2026-05-05 20:34 38.54313 -77.37762 7025 ft 301 kts 10°
2026-05-05 20:34 38.56405 -77.37099 7030 ft 308 kts 11°
2026-05-05 20:34 38.58515 -77.36455 7017 ft 297 kts
2026-05-05 20:34 38.60508 -77.36292 6997 ft 268 kts 355°
2026-05-05 20:35 38.62337 -77.36236 7240 ft 243 kts 356°
2026-05-05 20:35 38.64025 -77.36183 7172 ft 249 kts 356°
2026-05-05 20:35 38.65845 -77.36128 6954 ft 266 kts 356°
2026-05-05 20:35 38.67775 -77.36060 6449 ft 281 kts 357°
2026-05-05 20:36 38.69778 -77.35988 5923 ft 287 kts 358°
2026-05-05 20:36 38.71799 -77.35871 5382 ft 290 kts
2026-05-05 20:36 38.73820 -77.35532 4842 ft 291 kts
2026-05-05 20:36 38.75868 -77.35188 4301 ft 294 kts
2026-05-05 20:37 38.77880 -77.34856 4043 ft 284 kts
2026-05-05 20:37 38.79205 -77.34637 4004 ft 273 kts
2026-05-05 20:37 38.81708 -77.34213 4000 ft 264 kts
2026-05-05 20:37 38.83533 -77.33896 3999 ft 262 kts
2026-05-05 20:38 38.85348 -77.33571 3997 ft 261 kts
2026-05-05 20:38 38.87197 -77.33237 3999 ft 265 kts
2026-05-05 20:38 38.89082 -77.32906 4007 ft 273 kts
2026-05-05 20:38 38.91007 -77.32571 4005 ft 279 kts
2026-05-05 20:39 38.92964 -77.32233 4004 ft 283 kts
2026-05-05 20:39 38.94975 -77.31916 3997 ft 287 kts
2026-05-05 20:39 38.97040 -77.31805 4000 ft 292 kts
2026-05-05 20:39 38.99119 -77.31669 4002 ft 298 kts 360°
2026-05-05 20:40 39.01261 -77.31535 4007 ft 308 kts
2026-05-05 20:40 39.03469 -77.31410 3982 ft 310 kts 360°
2026-05-05 20:40 39.05524 -77.31286 3970 ft 272 kts 360°
2026-05-05 20:40 39.07344 -77.31158 3964 ft 243 kts 360°
2026-05-05 20:41 39.09060 -77.31029 3997 ft 245 kts 360°
2026-05-05 20:41 39.10840 -77.30901 3880 ft 257 kts
2026-05-05 20:41 39.12666 -77.30776 3675 ft 259 kts 360°
2026-05-05 20:41 39.14532 -77.30646 3406 ft 264 kts 360°
2026-05-05 20:42 39.16394 -77.30517 3156 ft 269 kts 360°
2026-05-05 20:42 39.18314 -77.30392 3031 ft 268 kts 360°
2026-05-05 20:42 39.20157 -77.30259 3011 ft 254 kts 360°
2026-05-05 20:42 39.21870 -77.30500 2961 ft 226 kts 328°
2026-05-05 20:43 39.22879 -77.31840 2987 ft 192 kts 283°
2026-05-05 20:43 39.23161 -77.33508 3017 ft 185 kts 273°
2026-05-05 20:43 39.23411 -77.35193 3019 ft 190 kts 274°
2026-05-05 20:43 39.23539 -77.36982 2996 ft 190 kts 253°
2026-05-05 20:44 39.22806 -77.38316 3016 ft 187 kts 217°
2026-05-05 20:44 39.21650 -77.39236 3017 ft 183 kts 208°
2026-05-05 20:44 39.20547 -77.39833 2992 ft 156 kts 203°
2026-05-05 20:44 39.19491 -77.40295 2989 ft 149 kts 201°
2026-05-05 20:45 39.17483 -77.41185 3003 ft 146 kts 212°
2026-05-05 20:45 39.16579 -77.41907 2992 ft 146 kts 204°
2026-05-05 20:45 39.15529 -77.42174 3076 ft 143 kts 188°
2026-05-05 20:46 39.14572 -77.42333 3201 ft 130 kts 207°
2026-05-05 20:46 39.13702 -77.42780 3288 ft 127 kts 199°
2026-05-05 20:46 39.12762 -77.43028 3353 ft 130 kts 195°
2026-05-05 20:46 39.11805 -77.43193 3301 ft 140 kts 192°
2026-05-05 20:47 39.10787 -77.43299 3213 ft 149 kts 189°
2026-05-05 20:47 39.09669 -77.43375 3027 ft 166 kts 187°
2026-05-05 20:47 39.08471 -77.43413 2795 ft 166 kts 186°
2026-05-05 20:47 39.07377 -77.43429 2537 ft 148 kts 186°
2026-05-05 20:48 39.06368 -77.43441 2320 ft 137 kts 186°
2026-05-05 20:48 39.05418 -77.43456 2118 ft 127 kts 187°
2026-05-05 20:48 39.04567 -77.43469 1943 ft 120 kts 187°
2026-05-05 20:48 39.03696 -77.43486 1823 ft 126 kts 187°
2026-05-05 20:49 39.02807 -77.43500 1672 ft 125 kts 186°
2026-05-05 20:49 39.01936 -77.43514 1505 ft 124 kts 186°
2026-05-05 20:49 39.01068 -77.43528 1352 ft 125 kts 186°
2026-05-05 20:49 39.00191 -77.43536 1194 ft 124 kts 186°
2026-05-05 20:50 38.99339 -77.43549 1012 ft 112 kts 185°
2026-05-05 20:50 38.98844 -77.43546 896 ft 100 kts 185°
2026-05-05 20:50 38.97752 -77.43574 822 ft 126 kts 185°
2026-05-05 20:50 38.96892 -77.43576 595 ft 119 kts 185°
2026-05-05 20:51 38.96045 -77.43596 454 ft 119 kts 183°
2026-05-05 20:51 38.95297 -77.43599 302 ft 94 kts 185°
2026-05-05 20:51 38.94741 -77.43621 296 ft 53 kts 174°
2026-05-05 20:51 38.94495 -77.43646 300 ft 18 kts 206°
2026-05-05 20:52 38.94530 -77.43728 299 ft 12 kts 329°
2026-05-05 20:52 38.94612 -77.43791 297 ft 14 kts 328°
2026-05-05 20:52 38.94712 -77.43840 296 ft 16 kts 352°
2026-05-05 20:52 38.94828 -77.43853 296 ft 17 kts 360°
2026-05-05 20:53 38.94954 -77.43853 294 ft 19 kts
2026-05-05 20:53 38.95097 -77.43852 293 ft 20 kts
2026-05-05 20:53 38.95245 -77.43842 292 ft 22 kts
2026-05-05 20:53 38.95351 -77.43870 290 ft 11 kts 280°
2026-05-05 20:54 38.95352 -77.43980 290 ft 13 kts 266°
2026-05-05 20:54 38.95351 -77.44076 289 ft 8 kts 229°
2026-05-05 20:54 38.95329 -77.44123 288 ft 4 kts 313°
2026-05-05 20:54 38.95377 -77.44134 288 ft 0 kts 359°